Date,TemperatureHighF,TemperatureAvgF,TemperatureLowF,DewpointHighF,DewpointAvgF,DewpointLowF,HumidityHigh,HumidityAvg,HumidityLow,PressureMaxIn,PressureMinIn,WindSpeedMaxMPH,WindSpeedAvgMPH,GustSpeedMaxMPH,PrecipitationSumIn
2013-5-1,77,59,39,41,30,18,89,41,12,30.03,29.91,13,2,14,0.00
2013-5-2,80,58,40,46,37,24,92,49,21,30.06,29.85,22,3,22,0.00
2013-5-3,69,55,37,42,36,26,91,52,31,30.11,29.91,14,2,15,0.00
2013-5-4,75,58,39,48,38,28,99,56,22,29.95,29.76,13,2,14,0.00
2013-5-5,75,57,36,41,34,29,91,47,19,29.89,29.72,14,2,15,0.00
2013-5-6,78,58,38,46,32,11,96,48,8,29.83,29.63,13,2,14,0.00
2013-5-7,84,62,40,49,39,31,95,50,16,29.75,29.58,12,2,13,0.00
2013-5-8,76,61,47,64,55,45,99,82,43,29.77,29.62,18,2,23,0.40
2013-5-9,69,61,56,64,59,54,100,94,63,29.62,29.46,12,1,13,0.28
2013-5-10,75,62,53,68,57,53,100,86,53,29.56,29.44,13,2,14,0.00
2013-5-11,69,61,57,62,60,57,100,95,80,29.44,29.21,17,3,20,0.21
2013-5-12,64,55,44,58,44,24,100,70,32,29.38,29.17,17,2,19,0.01
2013-5-13,50,44,40,36,30,26,81,55,43,29.63,29.37,18,4,22,0.00
2013-5-14,58,45,34,43,31,24,97,61,29,29.67,29.55,23,3,24,0.00
2013-5-15,62,46,29,50,39,28,100,79,30,29.62,29.23,23,3,24,0.13
2013-5-16,76,59,45,62,43,32,100,65,21,29.44,29.18,28,3,31,0.01
2013-5-17,64,54,44,42,38,33,85,59,33,29.81,29.44,20,4,23,0.00
2013-5-18,75,55,37,47,38,32,100,62,22,29.90,29.76,12,2,12,0.00
2013-5-19,70,55,43,54,48,42,99,80,46,29.91,29.75,18,3,23,0.20
2013-5-20,71,62,54,68,60,54,100,93,73,29.75,29.54,10,2,11,0.03
2013-5-21,80,63,52,72,60,50,100,90,60,29.69,29.41,16,3,19,0.70
2013-5-22,74,59,51,68,57,50,100,94,75,29.55,29.41,13,2,15,0.26
2013-5-23,76,65,56,71,62,55,100,91,73,29.46,29.32,19,4,20,0.00
2013-5-24,67,55,45,64,53,42,100,92,80,29.51,29.22,22,5,25,0.50
2013-5-25,45,42,35,44,41,33,99,94,87,29.50,29.40,29,8,32,1.02
2013-5-26,52,44,37,42,39,36,98,83,62,29.66,29.35,24,6,27,0.11
2013-5-27,68,51,35,54,37,32,100,67,27,29.77,29.65,22,3,24,0.00
2013-5-28,73,56,36,48,41,35,100,64,25,29.85,29.69,12,2,12,0.00
2013-5-29,60,56,52,60,55,47,100,95,75,29.73,29.56,5,1,7,0.14
2013-5-30,88,71,58,76,62,58,100,79,41,29.66,29.57,11,2,14,0.00
2013-5-31,92,74,58,70,62,56,100,71,31,29.70,29.49,19,2,20,0.00